WZZ1097 EPKT-EKBI

Flight info

Callsign WZZ1097
Flight time N/A
Altitude 34000
Route LUMVE L619 NUDRO DCT BINKA DCT SONAL DCT LOKSA
Aircraft A21N/M-SDE3FGHIRWY/LB1

Departure

Time 2026-05-07 19:33
Airport Katowice Wojciech Korfanty International Airport (EPKT)

Arrival

Time N/A
Airport Billund Airport (EKBI)
Time Latitude Longitude Altitude Speed Heading
2026-05-07 19:03 50.47152 19.08183 1004 ft 0 kts 180°
2026-05-07 19:21 50.47153 19.08183 1004 ft 1 kts 180°
2026-05-07 19:21 50.47170 19.08183 1004 ft 3 kts 180°
2026-05-07 19:22 50.47191 19.08183 1004 ft 3 kts 180°
2026-05-07 19:22 50.47210 19.08183 1004 ft 3 kts 170°
2026-05-07 19:22 50.47226 19.08174 1004 ft 3 kts 131°
2026-05-07 19:22 50.47233 19.08153 1004 ft 2 kts 91°
2026-05-07 19:23 50.47233 19.08134 1004 ft 3 kts 90°
2026-05-07 19:23 50.47233 19.08109 1004 ft 1 kts 90°
2026-05-07 19:23 50.47233 19.08107 1004 ft 0 kts 90°
2026-05-07 19:25 50.47233 19.08116 1004 ft 3 kts 90°
2026-05-07 19:25 50.47232 19.08175 1004 ft 8 kts 93°
2026-05-07 19:25 50.47231 19.08287 1004 ft 13 kts 89°
2026-05-07 19:26 50.47232 19.08452 1004 ft 17 kts 89°
2026-05-07 19:26 50.47232 19.08660 1004 ft 20 kts 91°
2026-05-07 19:26 50.47230 19.08885 1004 ft 21 kts 90°
2026-05-07 19:26 50.47231 19.09120 1004 ft 22 kts 91°
2026-05-07 19:27 50.47229 19.09282 1004 ft 23 kts 91°
2026-05-07 19:27 50.47229 19.09535 1004 ft 24 kts 88°
2026-05-07 19:27 50.47228 19.09785 1004 ft 19 kts 91°
2026-05-07 19:27 50.47229 19.09980 1004 ft 7 kts 84°
2026-05-07 19:28 50.47247 19.10050 1004 ft 7 kts 50°
2026-05-07 19:28 50.47289 19.10131 1004 ft 13 kts 51°
2026-05-07 19:28 50.47353 19.10263 1004 ft 17 kts 52°
2026-05-07 19:28 50.47409 19.10374 1004 ft 8 kts 52°
2026-05-07 19:29 50.47410 19.10377 1004 ft 0 kts 52°
2026-05-07 19:31 50.47414 19.10386 1004 ft 3 kts 60°
2026-05-07 19:31 50.47442 19.10434 1004 ft 8 kts 34°
2026-05-07 19:31 50.47502 19.10452 1004 ft 7 kts 10°
2026-05-07 19:32 50.47572 19.10436 1003 ft 13 kts 330°
2026-05-07 19:32 50.47596 19.10305 1003 ft 14 kts 279°
2026-05-07 19:32 50.47598 19.10066 1002 ft 47 kts 270°
2026-05-07 19:32 50.47599 19.09163 1008 ft 117 kts 270°
2026-05-07 19:33 50.47603 19.07585 1006 ft 167 kts 270°
2026-05-07 19:33 50.47607 19.05679 1410 ft 175 kts 271°
2026-05-07 19:33 50.47609 19.03738 1935 ft 180 kts 271°
2026-05-07 19:33 50.47603 19.01773 2505 ft 185 kts 272°
2026-05-07 19:34 50.47608 18.99676 2883 ft 199 kts 272°
2026-05-07 19:34 50.47610 18.97416 3325 ft 217 kts 271°
2026-05-07 19:34 50.47612 18.94913 3677 ft 241 kts 271°
2026-05-07 19:34 50.47605 18.92192 4241 ft 256 kts 270°